Date String (YYYY-MM-DD hh:mm:ss) UTC,Instrument flags,Ambient pressure (hPa),Sample flow (lpm),Bypass flow (lpm),Sample temperature (°C),Ambient temperature (°C),ASC tube jacket temperature (°C),LED temperature (°C),Box temperature (°C),Sample RH (%),Span deviation,Mass concentration (μg/m³),Mass concentration (μg/m³),Mass concentration (μg/m³)
DateTimeUTC,F1_M11,P_M11,Q1_M11,Q2_M11,T1_M11,T2_M11,T3_M11,T4_M11,T5_M11,U1_M11,ZSPAN_M11,X0_M11,X2_M11,X1_M11
2021-11-18 15:00:00,,0834.0,5.01,0.00,22.7,23.0,00.0,31.6,24.6,09.2,0000.0,0012.48,0004.25,0003.24
2021-11-18 15:01:00,,0834.0,5.00,0.00,22.8,23.7,00.0,31.7,24.8,09.4,0000.0,0011.96,0004.27,0003.26
2021-11-18 15:02:00,,0834.0,5.01,0.00,22.9,23.5,00.0,31.7,24.9,09.4,0000.0,0011.93,0004.31,0003.28
2021-11-18 15:03:00,,0834.0,4.99,0.00,22.9,23.3,00.0,31.7,24.9,09.6,0000.0,0012.52,0004.35,0003.29
2021-11-18 15:04:00,,0834.0,5.01,0.00,22.9,23.1,00.0,31.8,24.8,09.5,0000.0,0012.04,0004.42,0003.31
2021-11-18 15:05:00,,0834.0,5.00,0.00,23.0,22.9,00.0,31.8,24.8,09.4,0000.0,0012.49,0004.49,0003.33
2021-11-18 15:06:00,,0834.0,4.99,0.00,23.0,22.8,00.0,31.8,24.8,09.5,0000.0,0012.87,0004.50,0003.34
2021-11-18 15:07:00,,0834.0,5.00,0.00,23.0,22.7,00.0,31.8,24.8,09.3,0000.0,0013.35,0004.54,0003.37
2021-11-18 15:08:00,,0834.0,5.00,0.00,23.0,22.6,00.0,31.8,24.8,09.2,0000.0,0013.55,0004.59,0003.39
2021-11-18 15:09:00,,0834.0,5.00,0.00,23.0,22.5,00.0,31.8,24.8,09.4,0000.0,0013.30,0004.59,0003.40
2021-11-18 15:10:00,,0834.0,5.00,0.00,23.0,22.5,00.0,31.8,24.8,09.5,0000.0,0012.84,0004.57,0003.42
2021-11-18 15:11:00,,0834.0,5.01,0.00,23.0,22.4,00.0,31.9,24.8,09.4,0000.0,0012.09,0004.60,0003.44
2021-11-18 15:12:00,,0834.0,4.99,0.00,23.0,22.4,00.0,31.9,24.8,09.4,0000.0,0012.48,0004.67,0003.45
2021-11-18 15:13:00,,0834.0,5.00,0.00,23.0,22.4,00.0,31.9,24.8,09.4,0000.0,0012.68,0004.73,0003.47
2021-11-18 15:14:00,,0834.0,4.98,0.00,23.0,22.4,00.0,31.9,24.8,09.3,0000.0,0012.36,0004.80,0003.51
2021-11-18 15:15:00,,0834.0,5.01,0.00,23.0,22.3,00.0,31.9,24.8,09.2,0000.0,0013.60,0004.90,0003.55
2021-11-18 15:16:00,,0834.0,4.99,0.00,23.0,22.3,00.0,31.9,24.8,09.2,0000.0,0013.34,0004.88,0003.57
2021-11-18 15:17:00,,0834.0,5.01,0.00,23.0,22.3,00.0,31.9,24.8,09.2,0000.0,0012.60,0004.92,0003.59
2021-11-18 15:18:00,,0834.0,4.99,0.00,23.0,22.3,00.0,31.9,24.8,09.4,0000.0,0012.21,0004.99,0003.60
2021-11-18 15:19:00,,0834.1,4.99,0.00,23.0,22.3,00.0,31.9,24.8,09.3,0000.0,0012.06,0004.97,0003.59
2021-11-18 15:20:00,,0834.1,5.00,0.00,23.0,22.3,00.0,31.9,24.8,09.4,0000.0,0012.13,0004.99,0003.60
2021-11-18 15:21:00,,0834.0,5.02,0.00,23.0,22.3,00.0,32.0,24.8,09.7,0000.0,0013.03,0005.04,0003.61
2021-11-18 15:22:00,,0834.0,5.00,0.00,23.0,22.3,00.0,32.0,24.8,09.7,0000.0,0013.54,0005.01,0003.62
2021-11-18 15:23:00,,0834.0,5.00,0.00,23.1,22.3,00.0,32.0,24.8,09.6,0000.0,0013.86,0004.99,0003.62
2021-11-18 15:24:00,,0834.1,4.99,0.00,23.1,22.3,00.0,32.0,24.9,09.5,0000.0,0014.21,0004.95,0003.61
2021-11-18 15:25:00,,0834.0,5.00,0.00,23.1,22.3,00.0,32.0,24.9,09.5,0000.0,0013.97,0004.89,0003.57
2021-11-18 15:26:00,,0834.0,5.00,0.00,23.1,22.3,00.0,32.0,24.9,09.5,0000.0,0012.86,0004.82,0003.55
2021-11-18 15:27:00,,0834.0,5.01,0.00,23.1,22.3,00.0,32.0,24.9,09.5,0000.0,0013.51,0004.81,0003.53
2021-11-18 15:28:00,,0834.0,4.99,0.00,23.1,22.3,00.0,32.0,24.9,09.5,0000.0,0013.25,0004.74,0003.51
2021-11-18 15:29:00,,0834.0,5.00,0.00,23.1,22.3,00.0,32.0,24.9,09.4,0000.0,0013.23,0004.64,0003.48
2021-11-18 15:30:00,,0834.0,5.00,0.00,23.1,22.4,00.0,32.0,24.9,09.5,0000.0,0013.74,0004.64,0003.46
2021-11-18 15:31:00,,0834.0,4.99,0.00,23.1,22.4,00.0,32.0,24.9,09.2,0000.0,0013.62,0004.60,0003.42
2021-11-18 15:32:00,,0834.0,5.00,0.00,23.1,22.4,00.0,32.0,24.9,09.3,0000.0,0012.86,0004.55,0003.38
2021-11-18 15:33:00,,0834.0,5.00,0.00,23.1,22.4,00.0,32.0,24.9,09.6,0000.0,0012.34,0004.59,0003.37
2021-11-18 15:34:00,,0834.0,5.01,0.00,23.1,22.4,00.0,32.1,24.9,09.6,0000.0,0011.56,0004.58,0003.37
2021-11-18 15:35:00,,0834.0,5.00,0.00,23.1,22.4,00.0,32.1,25.0,09.5,0000.0,0011.05,0004.56,0003.37
2021-11-18 15:36:00,,0834.0,4.99,0.00,23.2,22.4,00.0,32.1,24.9,09.5,0000.0,0011.00,0004.56,0003.39
2021-11-18 15:37:00,,0834.0,5.00,0.00,23.2,22.4,00.0,32.1,24.9,09.6,0000.0,0010.78,0004.48,0003.39
2021-11-18 15:38:00,,0834.0,5.00,0.00,23.2,22.4,00.0,32.1,25.0,09.6,0000.0,0010.21,0004.53,0003.43
2021-11-18 15:39:00,,0834.0,5.00,0.00,23.2,22.4,00.0,32.1,25.0,09.6,0000.0,0010.43,0004.59,0003.46
2021-11-18 15:40:00,,0834.0,5.00,0.00,23.2,22.4,00.0,32.1,25.0,09.8,0000.0,0011.03,0004.61,0003.50
2021-11-18 15:41:00,,0834.0,5.00,0.00,23.2,22.4,00.0,32.1,25.0,09.7,0000.0,0010.63,0004.63,0003.54
2021-11-18 15:42:00,,0834.0,4.99,0.00,23.2,22.5,00.0,32.1,25.0,09.7,0000.0,0010.64,0004.68,0003.59
2021-11-18 15:43:00,,0834.0,5.01,0.00,23.2,22.4,00.0,32.1,25.0,09.6,0000.0,0011.06,0004.74,0003.62
2021-11-18 15:44:00,,0833.9,5.00,0.00,23.2,22.4,00.0,32.1,25.0,09.8,0000.0,0011.69,0004.75,0003.64
2021-11-18 15:45:00,,0833.9,5.00,0.00,23.2,22.4,00.0,32.1,25.0,09.9,0000.0,0012.42,0004.74,0003.65
2021-11-18 15:46:00,,0833.9,5.00,0.00,23.2,22.4,00.0,32.1,25.0,09.9,0000.0,0012.35,0004.74,0003.65
2021-11-18 15:47:00,,0833.9,5.01,0.00,23.2,22.4,00.0,32.2,25.0,10.1,0000.0,0013.45,0004.76,0003.65
2021-11-18 15:48:00,,0833.9,5.00,0.00,23.2,22.4,00.0,32.2,25.0,10.1,0000.0,0014.51,0004.85,0003.65
2021-11-18 15:49:00,,0833.9,4.99,0.00,23.2,22.4,00.0,32.2,25.0,10.2,0000.0,0015.08,0004.86,0003.65
2021-11-18 15:50:00,,0833.9,5.00,0.00,23.2,22.4,00.0,32.2,25.0,10.0,0000.0,0015.95,0004.83,0003.64
2021-11-18 15:51:00,,0833.9,4.99,0.00,23.2,22.4,00.0,32.2,25.0,09.8,0000.0,0015.60,0004.85,0003.63
2021-11-18 15:52:00,,0833.8,5.00,0.00,23.3,22.4,00.0,32.2,25.0,09.9,0000.0,0015.89,0004.85,0003.62
2021-11-18 15:53:00,,0833.9,5.01,0.00,23.3,22.5,00.0,32.2,25.0,09.9,0000.0,0016.88,0004.84,0003.60
2021-11-18 15:54:00,,0833.9,4.99,0.00,23.3,22.5,00.0,32.2,25.0,09.9,0000.0,0017.39,0004.83,0003.61
2021-11-18 15:55:00,,0833.9,5.01,0.00,23.3,22.5,00.0,32.2,25.0,09.8,0000.0,0017.33,0004.89,0003.62
2021-11-18 15:56:00,,0833.9,4.99,0.00,23.3,22.5,00.0,32.2,25.1,09.6,0000.0,0016.90,0004.92,0003.62
2021-11-18 15:57:00,,0833.9,5.01,0.00,23.3,22.5,00.0,32.2,25.1,09.5,0000.0,0017.17,0004.94,0003.62
2021-11-18 15:58:00,,0833.8,5.00,0.00,23.3,22.5,00.0,32.2,25.1,09.5,0000.0,0016.51,0004.95,0003.63
2021-11-18 15:59:00,,0833.8,4.98,0.00,23.3,22.5,00.0,32.2,25.1,09.6,0000.0,0015.95,0004.92,0003.65
